Volver al catálogo

STARLINK-3310

ActivoComunicacionesVLEO
NORAD 50835·PAYLOAD·🇺🇸 United States

Lanzado Jan 6, 2022 desde Cape Canaveral Space Force Station

Loading…

Próximos Pases (próximas 24 horas)

TLE

ActualizadoSource: CelesTrak SupGP

Época: Sep 14, 2026, 20:37 UTC

1 50835C 22001AJ  26257.85951389  .00058027  00000+0  32334-2 0  2571
2 50835  53.2146  47.8051 0002060 110.2336 163.7831 15.13073958    15

Sigue STARLINK-3310 en tiempo real con AllMySat

Download on the App Store